STARLINK-11165, 60063

Orbit data source: Space-Track

STARLINK-11165, 60063 is a payload satellite owned by SpaceX/Seattle (US) in LEO that was launched on Wed, 19 Jun 2024 UTC via an FALCON 9 launch vehicle from the Air Force Western Test Range (AFWTR). Payload-class satellites include a variety of spacecraft equipped with specific instruments for various scientific and technological missions. These include communications satellites like Starlink; space stations such as the ISS; scientific satellites like the Hubble; Earth observation satellites from companies like Planet Labs, Umbra, and HawkEye 360; GPS; miniature CubeSats for education and research; and military/defense satellites.

Not visible in the next 10 days
Identifier
60063, 2024-113E
Orbit
LEO
Country
Flag of USUS
Related business
Manufacturer
SpaceX/Seattle
Mission
Operational Commercial Communications
Bus & Motor
STARLINK V2MD, Unknown motor
Mass
960 kg wet, ~910 kg dry
Launch date (UTC)
2024-06-19 (2 years ago)
Launch vehicle
FALCON 9
Launch site
Air Force Western Test Range (AFWTR)
Object type
Payload
Rocket body
Debris
Shape & HBR
Box + 2 Pan, 18.1 m
Radar Cross Section
36.964 m², Large (>1 m²)

Expand to show TLE details & history
Last TLE update: 23 hours ago

TLE from 23 hours ago
0 STARLINK-11165
1 60063U 24113E   26170.88623460  .00002173  00000-0  22786-4 0  9991
2 60063  53.1576  47.3239 0001245 139.8835 220.2275 15.69716890115617
Epoch: 2026-06-19T21:16Z
TLE epoch observation values (Epoch: 2026-06-19T21:16:10.669Z)
Latitude
-0.00002°
Longitude
-179.82935°
Altitude
361.262 km
Speed
7.693 km/s
True Right ascension
03h 09m 17s
True Declination
0° 00' 00"
Sunlit
Object was in daylight at epoch
Visualization orbit readout
Latitude
Unknown
Longitude
Unknown
Altitude
Unknown
Speed
Unknown
Apparent Right ascension
Unknown
Apparent Declination
Unknown
Sunlit
N/A
Visualization observer readout
Local Sidereal Time
07:19:40
Azimuth
Unknown
Elevation
Unknown
Doppler factor
Unknown
Orbital elements
Apogee altitude
360.807 km
Perigee altitude
359.129 km
Semi-major axis
6,738.105 km
Eccentricity
0.00012
Inclination
53.1576°
RAAN
47.3239°
Arg. of periapsis
139.8835°
True anomaly
220.21829°
Mean anomaly
220.2275°
Eccentric anomaly
220.22289°
Mean motion
3.92407 °/min
Orbital period
91.74 mins
BSTAR
0.000022786
Loading maneuver chart data...
Computing Atmospheric mass density...
Loading historical data...
Loading historical data...
Loading historical data...
Loading historical data...
Loading historical data...
Loading historical data...
Loading historical data...

Documentation

Showing up to 5 results
|